This demonstration page uses our WeatherBlox Daily Observations layout. Learn more.

Left ArrowRight Arrow

41.12389, -100.76542

Hourly Observations for July 23, 2016

Temp ( °F °C ) Dew Point ( °F °C ) Humidity (%) Winds ( mph kmh ) Pressure ( in mb ) Visibility ( mi km ) Precip ( " mm )
12:46 am 00:46 Cloudy with Thunderstorms 69 20.6 65 18.3 87 87 NNW 17 28 29.94 1014 8 13 0.05 1.27
12:53 am 00:53 Cloudy with Thunderstorms 69 20.6 66 18.9 90 90 WNW 20 31 29.98 1015 5 8 0.07 1.78
1:19 am 01:19 Cloudy with Nearby Thunderstorms 69 20.6 66 18.9 90 90 WNW 8 13 29.94 1014 6 10 0.08 2.03
1:48 am 01:48 Mostly Cloudy with Light Rain 72 22 66 19 83 83 SSE 16 26 29.85 1011 9 14 0.12 3.05
1:53 am 01:53 Mostly Cloudy with Light Rain 70 21.1 66 18.9 87 87 SSE 14 22 29.89 1012 10 16 0.13 3.30
2:53 am 02:53 Mostly Cloudy with Light Rain 70 21.1 65 18.3 84 84 SSE 20 31 29.78 1008 10 16 0.06 1.52
3:22 am 03:22 Partly Cloudy 70 21 64 18 83 83 S 10 17 29.80 1009 10 16 0.00 0.00
3:53 am 03:53 Mostly Clear 70 21.1 65 18.3 84 84 NE 3 6 29.81 1010 10 16 0.00 0.03
4:53 am 04:53 Partly Cloudy 70 21 66 19 88 88 ENE 9 15 29.80 1009 10 16 0.00 0.00
5:53 am 05:53 Mostly Clear 68 20 66 18.9 93 93 ESE 7 11 29.78 1008 10 16 0.00 0.00
6:53 am 06:53 Sunny 68 20 66 18.9 93 93 S 5 7 29.78 1008 10 16 0.00 0.00
7:53 am 07:53 Sunny 73 22.8 66 18.9 79 79 SW 9 15 29.80 1009 10 16 0.00 0.00
8:53 am 08:53 Sunny 77 25 67 19.4 71 71 WSW 8 13 29.80 1009 10 16 0.00 0.00
9:53 am 09:53 Sunny 82 27.8 68 20 63 63 SW 10 17 29.82 1010 10 16 0.00 0.00
10:53 am 10:53 Sunny 83 28.3 68 20 61 61 SSW 10 17 29.81 1009 10 16 0.00 0.00
11:53 am 11:53 Sunny 83 28.3 69 20.6 63 63 WSW 7 11 29.81 1010 10 16 0.00 0.00
12:53 pm 12:53 Sunny 85 29.4 70 21.1 61 61 WSW 12 19 29.80 1009 10 16 0.00 0.00
1:53 pm 13:53 Sunny 89 31.7 71 21.7 55 55 WSW 8 13 29.79 1009 10 16 0.00 0.00
2:53 pm 14:53 Sunny 91 32.8 70 21.1 50 50 W 10 17 29.77 1008 10 16 0.00 0.00
3:53 pm 15:53 Sunny 93 33.9 70 21.1 47 47 WNW 9 15 29.77 1008 10 16 0.00 0.00
4:53 pm 16:53 Sunny 95 35 72 22 47 47 NW 8 13 29.59 1002 10 16 0.00 0.00
5:53 pm 17:53 Sunny 94 34.4 71 21.7 48 48 S 5 7 29.75 1008 10 16 0.00 0.00
6:53 pm 18:53 Sunny 93 33.9 69 20.6 46 46 NNE 8 13 29.75 1008 10 16 0.00 0.00
7:53 pm 19:53 Sunny 87 30.6 67 19.4 51 51 NE 9 15 29.78 1008 10 16 0.00 0.00
8:53 pm 20:53 Sunny 80 26.7 67 19.4 64 64 NNE 6 9 29.81 1009 10 16 0.00 0.00
9:53 pm 21:53 Clear 77 25 68 20 74 74 NE 3 6 29.82 1010 10 16 0.00 0.00
10:53 pm 22:53 Clear 75 23.9 67 19.4 76 76 Calm 29.85 1011 10 16 0.00 0.00
11:53 pm 23:53 Clear 74 23.3 62 16.7 67 67 NE 10 17 29.86 1011 10 16 0.00 0.00

Powered by AerisWeather